[[{"header":{"parameterUnit":"m.s-1","parameterCategory":1,"la1":30.2991,"la2":30.254,"lo1":-89.0895,"lo2":-89.0444,"dy":0.0017,"dx":0.0017,"nx":28,"ny":28,"refTime":"2025-03-31T09:00:00:Z","depth":0,"parameterNumber":2,"parameterNumberName":"U-component_of_WINDS"},"data":[0,0,0,0,0,0,0,0,0,0,0,0,0,0,0,0,0,0,0,0,0,0,0,0,0,0,0,0,0,0,0,0,0,0,0,0,0,0,0,0,0,0,0,0,0,0,0,0,0,0,0,0,0,0,0,0,0,0,-4.314,-4.3141,0,-4.3182,-4.3182,-4.3183,-4.3181,-4.3181,-4.318,-4.318,-4.322,-4.3221,-4.3223,0,0,0,0,0,0,0,0,0,0,0,0,0,-4.3057,-4.3058,-4.314,-4.3141,-4.3141,-4.3182,-4.3182,-4.3183,-4.3181,-4.3181,-4.318,-4.3179,-4.3219,-4.3221,-4.3223,0,0,0,0,0,0,0,0,0,0,0,0,0,-4.3095,-4.3059,-4.314,-4.3146,-4.3146,-4.3181,-4.3182,-4.3183,-4.3182,-4.3181,-4.318,-4.3179,-4.3218,-4.3221,-4.3223,-4.3255,0,0,-4.323,-4.3231,0,0,0,0,0,0,0,0,-4.3093,-4.3098,-4.3144,-4.3145,-4.3146,-4.3176,-4.3167,-4.3207,-4.3182,-4.3168,-4.318,-4.3179,-4.3205,-4.3209,-4.3218,-4.3256,-4.3258,-4.3231,-4.3232,-4.3233,-4.3234,0,0,0,0,0,0,0,-4.309,-4.3096,-4.3157,-4.3145,-4.3146,-4.3145,-4.3149,-4.3175,-4.3191,-4.3169,-4.3169,-4.3174,-4.3206,-4.3216,-4.3219,-4.3259,-4.323,-4.3233,-4.3234,-4.3235,-4.3323,-4.3323,0,0,0,0,0,0,-4.3087,-4.3094,-4.3155,-4.3158,-4.3117,-4.3147,-4.3152,-4.3167,-4.3191,-4.3194,-4.3175,-4.3174,-4.3212,-4.3216,-4.3221,-4.3257,-4.3233,-4.3235,-4.3237,-4.3322,-4.3323,-4.3324,0,0,0,0,0,0,-4.3085,-4.3092,-4.3154,-4.3126,-4.3134,-4.3149,-4.3166,-4.3168,-4.3178,-4.3195,-4.3198,-4.3183,-4.3212,-4.3217,-4.3246,-4.3259,-4.3236,-4.3238,-4.3321,-4.3322,-4.3323,-4.3332,0,0,0,0,0,0,-4.3083,-4.3092,-4.3105,-4.3126,-4.3135,-4.3179,-4.3167,-4.317,-4.3183,-4.3182,-4.3203,-4.3206,-4.3212,-4.3242,-4.3248,-4.3262,-4.324,-4.3319,-4.3321,-4.3323,-4.3331,-4.3334,-4.3336,0,0,0,0,0,-4.308,-4.3106,-4.3105,-4.3113,-4.3152,-4.318,-4.3185,-4.3192,-4.3184,-4.3196,-4.3207,-4.3205,-4.3257,-4.3245,-4.3252,-4.3266,-4.3319,-4.3321,-4.3323,-4.333,-4.3333,-4.3336,0,0,0,0,0,0,-4.3084,-4.3108,-4.3109,-4.3142,-4.3159,-4.318,-4.3196,-4.3196,-4.3215,-4.3213,-4.322,-4.3225,-4.3253,-4.3263,-4.325,-4.3297,-4.3287,-4.329,-4.3289,-4.3293,-4.3296,-4.3292,-4.3242,0,0,0,0,0,-4.309,-4.3111,-4.3131,-4.3158,-4.3167,-4.318,-4.3192,-4.3196,-4.3214,-4.3221,-4.3233,-4.3249,-4.3269,-4.3282,-4.3301,-4.3333,-4.3336,-4.3346,-4.3348,-4.3351,-4.3353,-4.3368,-4.3372,-4.333,-4.333,-4.333,0,0,-4.31,-4.3116,-4.3129,-4.316,-4.3173,-4.3194,-4.3186,-4.3209,-4.3224,-4.3224,-4.3251,-4.3261,-4.3279,-4.3309,-4.3323,-4.3318,-4.3365,-4.3353,-4.3355,-4.3356,-4.3371,-4.3375,-4.3378,-4.3332,-4.3332,-4.3331,0,0,-4.3129,-4.3144,-4.3168,-4.3182,-4.3202,-4.3211,-4.3216,-4.3237,-4.3243,-4.3271,-4.3271,-4.3289,-4.3323,-4.3336,-4.3347,-4.338,-4.3378,-4.3386,-4.3399,-4.3414,-4.3417,-4.342,-4.343,-4.3434,-4.3388,-4.3388,-4.3388,0,-4.3139,-4.3171,-4.318,-4.3203,-4.3215,-4.3217,-4.324,-4.3253,-4.3279,-4.3287,-4.3281,-4.3324,-4.3336,-4.3368,-4.3376,-4.3385,-4.3391,-4.3383,-4.3416,-4.3419,-4.3422,-4.3432,-4.3436,-4.3389,-4.3389,-4.3389,-4.3389,0,-4.3181,-4.3204,-4.3221,-4.3245,-4.326,-4.3283,-4.3294,-4.3308,-4.331,-4.3319,-4.3346,-4.3361,-4.3383,-4.3391,-4.3394,-4.3423,-4.3419,-4.3415,-4.3404,-4.3427,-4.3436,-4.3439,-4.339,-4.339,-4.339,-4.3389,0,0,-4.3214,-4.3243,-4.3249,-4.3259,-4.3282,-4.3299,-4.3321,-4.3343,-4.3354,-4.3371,-4.3389,-4.3418,-4.3414,-4.3426,-4.343,-4.3444,-4.3466,-4.3438,-4.3438,-4.3441,-4.3497,-4.3498,-4.3503,-4.3466,-4.3467,-4.3468,-4.3495,0,-4.3244,-4.3284,-4.3292,-4.3326,-4.3346,-4.3348,-4.3367,-4.3382,-4.3391,-4.3408,-4.3417,-4.3436,-4.3431,-4.3438,-4.3451,-4.3461,-4.3477,-4.3459,-4.3481,-4.3481,-4.3474,-4.3508,-4.351,-4.3534,-4.3498,-4.3499,-4.3499,0,-4.3284,-4.3302,-4.3339,-4.3358,-4.3366,-4.3383,-4.3403,-4.342,-4.3437,-4.3442,-4.3455,-4.3458,-4.348,-4.3469,-4.3498,-4.3486,-4.3495,-4.3501,-4.3502,-4.3503,-4.3491,-4.3507,-4.3543,-4.3546,-4.3505,-4.3505,-4.3505,0,-4.3301,-4.3336,-4.3361,-4.3371,-4.3394,-4.3405,-4.3415,-4.3431,-4.3443,-4.3461,-4.3468,-4.3487,-4.3497,-4.3512,-4.3519,-4.3511,-4.3547,-4.3537,-4.355,-4.355,-4.3556,-4.3555,-4.3592,-4.3565,-4.3565,-4.3565,-4.3565,0,-4.3333,-4.3354,-4.3369,-4.3385,-4.3408,-4.3417,-4.344,-4.345,-4.3464,-4.3481,-4.3484,-4.3499,-4.3509,-4.3525,-4.3531,-4.3553,-4.3558,-4.3561,-4.3562,-4.356,-4.3559,-4.3565,-4.3563,-4.3566,-4.3566,-4.3566,-4.3566,0,-4.3355,-4.3366,-4.3394,-4.3414,-4.3419,-4.3436,-4.3452,-4.3466,-4.3475,-4.3496,-4.3501,-4.3514,-4.3533,-4.3542,-4.3566,-4.357,-4.3595,-4.3595,-4.3589,-4.3589,-4.36,-4.3599,-4.364,-4.3645,-4.3617,-4.3617,-4.3618,0,-4.3373,-4.339,-4.3411,-4.3423,-4.3433,-4.3452,-4.3464,-4.3474,-4.3486,-4.3506,-4.3518,-4.3537,-4.3553,-4.3584,-4.3594,-4.3612,-4.3612,-4.3626,-4.3615,-4.3612,-4.361,-4.3609,-4.361,-4.3627,-4.3627,-4.3628,-4.3628,0,-4.3404,-4.3408,-4.3427,-4.3446,-4.3461,-4.3477,-4.3492,-4.3501,-4.3513,-4.3526,-4.3546,-4.3559,-4.3583,-4.3602,-4.362,-4.3629,-4.363,-4.3631,-4.3635,-4.3632,-4.3627,-4.3628,-4.3592,-4.363,-4.363,-4.363,-4.3629,-4.3629,-4.3424,-4.3438,-4.3455,-4.3474,-4.3487,-4.3501,-4.3516,-4.3526,-4.3543,-4.3564,-4.3568,-4.3589,-4.3604,-4.3629,-4.3639,-4.3655,-4.3651,-4.3657,-4.3658,-4.3659,-4.3659,-4.3626,-4.3658,-4.3658,-4.3658,-4.3658,-4.3658,0,-4.3452,-4.3464,-4.3482,-4.3503,-4.3518,-4.3519,-4.3536,-4.3548,-4.3566,-4.3581,-4.3597,-4.3619,-4.3637,-4.365,-4.3668,-4.3677,-4.3678,-4.3682,-4.368,-4.3682,-4.3661,-4.3656,-4.3681,-4.3681,-4.3681,-4.3681,-4.3681,-4.3681,-4.3469,-4.3493,-4.3499,-4.3529,-4.3539,-4.356,-4.357,-4.3582,-4.3594,-4.3619,-4.3634,-4.3642,-4.3656,-4.3675,-4.3691,-4.3694,-4.37,-4.3703,-4.3706,-4.3686,-4.3684,-4.3681,-4.3676,-4.3705,-4.3705,-4.3725,-4.3725,-4.3725]},{"header":{"parameterUnit":"m.s-1","parameterCategory":1,"la1":30.2991,"la2":30.254,"lo1":-89.0895,"lo2":-89.0444,"dy":0.0017,"dx":0.0017,"nx":28,"ny":28,"refTime":"2025-03-31T09:00:00:Z","depth":0,"parameterNumber":3,"parameterNumberName":"V-component_of_WINDS"},"data":[0,0,0,0,0,0,0,0,0,0,0,0,0,0,0,0,0,0,0,0,0,0,0,0,0,0,0,0,0,0,0,0,0,0,0,0,0,0,0,0,0,0,0,0,0,0,0,0,0,0,0,0,0,0,0,0,0,0,4.4959,4.496,0,4.5053,4.5054,4.5055,4.5026,4.5024,4.5022,4.502,4.5111,4.5115,4.5119,0,0,0,0,0,0,0,0,0,0,0,0,0,4.4749,4.4753,4.4959,4.496,4.4961,4.5053,4.5054,4.5056,4.5026,4.5024,4.5021,4.5019,4.511,4.5115,4.512,0,0,0,0,0,0,0,0,0,0,0,0,0,4.4842,4.4755,4.4959,4.4958,4.4959,4.5053,4.5054,4.5056,4.5027,4.5024,4.5021,4.5018,4.5108,4.5114,4.5121,4.5219,0,0,4.514,4.5143,0,0,0,0,0,0,0,0,4.4836,4.4849,4.4957,4.4958,4.4959,4.5025,4.5014,4.5111,4.5028,4.5001,4.502,4.5017,4.5084,4.5093,4.5117,4.5224,4.5228,4.5141,4.5145,4.5147,4.5149,0,0,0,0,0,0,0,4.483,4.4845,4.4996,4.4958,4.496,4.4951,4.4961,4.5032,4.5058,4.5003,4.5001,4.5013,4.5084,4.5111,4.5119,4.5229,4.5141,4.5146,4.515,4.5153,4.5424,4.5427,0,0,0,0,0,0,4.4824,4.484,4.4993,4.4999,4.4889,4.4958,4.4969,4.5007,4.5057,4.5062,4.5015,4.5011,4.5101,4.5111,4.5122,4.5243,4.5147,4.5153,4.5157,4.5421,4.5425,4.5428,0,0,0,0,0,0,4.4819,4.4838,4.4989,4.4919,4.4938,4.4964,4.5007,4.501,4.5036,4.5067,4.5071,4.5038,4.5099,4.5113,4.5196,4.5246,4.5156,4.5162,4.5417,4.5422,4.5427,4.5485,0,0,0,0,0,0,4.4813,4.4836,4.4875,4.492,4.4942,4.5064,4.501,4.5014,4.5048,4.5043,4.5088,4.5093,4.5098,4.5187,4.5203,4.5253,4.5167,4.5412,4.5419,4.5425,4.5479,4.5491,4.5502,0,0,0,0,0,4.4806,4.4886,4.4877,4.4896,4.4991,4.5067,4.5079,4.5084,4.5052,4.5091,4.5111,4.5092,4.5237,4.5196,4.5213,4.5266,4.5409,4.5417,4.5425,4.5473,4.5489,4.5502,0,0,0,0,0,0,4.4843,4.4892,4.4882,4.4979,4.502,4.5062,4.5111,4.51,4.5148,4.5142,4.5145,4.5155,4.5242,4.5262,4.5215,4.5365,4.5318,4.533,4.535,4.5365,4.5376,4.537,4.5172,0,0,0,0,0,4.4863,4.4922,4.496,4.5042,4.5063,4.5084,4.5117,4.5118,4.5159,4.5175,4.52,4.5239,4.5294,4.533,4.5382,4.5481,4.5491,4.5526,4.5537,4.5547,4.5557,4.5613,4.563,4.5453,4.5453,4.5453,0,0,4.4904,4.4937,4.4974,4.5051,4.5082,4.5142,4.5098,4.5163,4.5208,4.5184,4.5266,4.5286,4.5329,4.5422,4.5464,4.5442,4.5608,4.5557,4.5564,4.5569,4.5623,4.564,4.5654,4.5458,4.5458,4.5457,0,0,4.501,4.5041,4.5114,4.5147,4.5196,4.5209,4.5227,4.5271,4.5284,4.5367,4.5351,4.5403,4.5497,4.553,4.5558,4.5679,4.5664,4.5695,4.5757,4.5812,4.5825,4.5838,4.5883,4.5899,4.5705,4.5705,4.5705,0,4.5054,4.5146,4.5152,4.522,4.5255,4.5238,4.5312,4.5343,4.5405,4.5429,4.5403,4.5522,4.555,4.5651,4.5681,4.5704,4.5724,4.5691,4.5823,4.5836,4.5847,4.589,4.5907,4.5709,4.5708,4.5708,4.5708,0,4.52,4.5264,4.5317,4.5381,4.5421,4.5491,4.5507,4.5546,4.5544,4.556,4.5645,4.5678,4.5738,4.5761,4.5758,4.5863,4.5847,4.5822,4.5775,4.5868,4.5909,4.5925,4.5714,4.5713,4.5712,4.5711,0,0,4.5332,4.54,4.542,4.5449,4.5503,4.5552,4.5621,4.5682,4.5717,4.5759,4.5819,4.5899,4.5877,4.591,4.591,4.5958,4.6054,4.5927,4.5928,4.5952,4.6174,4.6194,4.6213,4.6044,4.6047,4.6049,4.6171,0,4.5445,4.557,4.5578,4.5691,4.5751,4.5737,4.5797,4.5836,4.5853,4.5905,4.5922,4.5981,4.5946,4.5966,4.6013,4.6033,4.6099,4.6024,4.6099,4.6102,4.6091,4.6234,4.6255,4.6368,4.6186,4.6189,4.6191,0,4.5593,4.5645,4.5764,4.5812,4.5837,4.5892,4.5949,4.5999,4.6042,4.6051,4.6089,4.6084,4.6154,4.6104,4.6202,4.6151,4.6181,4.6196,4.6201,4.6209,4.6153,4.6249,4.6404,4.6422,4.6215,4.6213,4.6212,0,4.5681,4.5779,4.5865,4.589,4.5946,4.5986,4.6011,4.6051,4.6088,4.6137,4.6161,4.6216,4.6247,4.629,4.6299,4.6261,4.6398,4.6348,4.6408,4.6408,4.6439,4.6437,4.6604,4.6455,4.6455,4.6454,4.6454,0,4.5807,4.5882,4.5906,4.5958,4.6041,4.6049,4.6131,4.6152,4.6189,4.6245,4.6234,4.6287,4.6295,4.6349,4.6356,4.6437,4.645,4.646,4.6461,4.6462,4.6462,4.6484,4.6477,4.6459,4.6458,4.6457,4.6456,0,4.592,4.5939,4.6032,4.6078,4.6092,4.6151,4.619,4.624,4.6256,4.6327,4.6344,4.6369,4.6432,4.6446,4.6519,4.6524,4.6622,4.6614,4.6608,4.6608,4.6668,4.6664,4.6857,4.6884,4.6715,4.6717,4.6718,0,4.6001,4.6059,4.6112,4.6151,4.6178,4.6239,4.6277,4.6286,4.6326,4.6381,4.6425,4.6488,4.6539,4.664,4.6664,4.6721,4.6716,4.678,4.6724,4.6725,4.672,4.6718,4.6724,4.6791,4.6793,4.6794,4.6795,0,4.6143,4.615,4.6207,4.6268,4.6315,4.6362,4.6407,4.6438,4.6453,4.6499,4.6565,4.6605,4.6682,4.6745,4.6802,4.6826,4.6814,4.6813,4.683,4.6833,4.6829,4.6834,4.664,4.6809,4.6807,4.6806,4.6806,4.6805,4.6244,4.6296,4.6343,4.6407,4.6442,4.6485,4.6536,4.6559,4.6615,4.6681,4.6682,4.6755,4.6797,4.6874,4.6901,4.6957,4.6937,4.6962,4.6968,4.6975,4.6982,4.6818,4.6967,4.6967,4.6966,4.6966,4.6966,0,4.6389,4.6419,4.6477,4.6543,4.6593,4.6579,4.6628,4.6671,4.6736,4.6778,4.6829,4.6906,4.6967,4.6995,4.7056,4.7095,4.7091,4.7111,4.7109,4.7115,4.6995,4.6975,4.7113,4.7113,4.7113,4.7113,4.7113,4.7113,4.647,4.6557,4.657,4.6675,4.6703,4.6777,4.6807,4.6846,4.688,4.6967,4.7019,4.7038,4.7075,4.7138,4.7193,4.72,4.7223,4.7247,4.7251,4.7138,4.7123,4.7109,4.7091,4.7251,4.7251,4.7367,4.7368,4.7369]}]]